Tracking 19909 objects as of 21-Oct-2019
HD Live streaming from Space Station
objects crossing your sky now

MOLNIYA 2-14

Track MOLNIYA 2-14 now!
MOLNIYA 2-14 is classified as:


NORAD ID: 8195
Int'l Code: 1975-081A
Perigee: 496.7 km
Apogee: 39,619.0 km
Inclination: 62.9 °
Period: 712.7 minutes
Semi major axis: 26428 km
RCS: 17.1549 m2 (large)
Launch date: September 9, 1975
Source: Commonwealth of Independent States (former USSR) (CIS)
Launch site: PLESETSK MISSILE AND SPACE COMPLEX (PKMTR)
aabbcc
Your satellite tracking list
Your tracking list is empty




NASA's NSSDC Master Catalog

Two Line Element Set (TLE):
1  8195U 75081A   19293.27465478 +.00001386 +00000-0 -79113-3 0  9994
2  8195 062.8621 315.2779 7401431 291.2216 008.6128 02.02061987323285
Source of the keplerian elements: AFSPC